Location: Kuffner-Sternwarte
(48.2130°N, 16.2960°E)
Time: 05:53:50
(UTC+02:00)

COROT - Pass Details

Date: 22 May 2018
Orbit: 602 x 886 km, 90.0° (Epoch: 17 October)

Event Time Altitude Azimuth Distance (km) Brightness Sun altitude
Rises 22:40:36 0° 353° (N) 3,043 10.4 -15.3°
Reaches altitude 10° 22:42:57 10° 344° (NNW) 2,166 9.6 -15.5°
Maximum altitude 22:47:15 34° 281° (W) 1,198 7.4 -15.9°
Drops below altitude 10° 22:51:51 10° 217° (SW) 2,317 8.3 -16.2°
Enters shadow 22:53:29 - 211° (SSW) 2,926 8.7 -16.4°
